Regional Weather Roundup
Issued by NWS

Home | Current Version | Previous Version | Graphics & Text | Print | Product List | Glossary On
Versions: 1 2 3 4 5 6 7 8 9 10 11 12 13 14 15 16 17 18 19 20 21 22 23 24 25 26 27 28 29 30 31 32 33 34 35 36 37 38 39 40 41 42 43 44 45 46 47 48 49 50
000
ASUS43 KLOT 261912
RWRIL

ILLINOIS REGIONAL WEATHER ROUNDUP
NATIONAL WEATHER SERVICE CHICAGO/ROMEOVILLE IL
200 PM CDT THU MAR 26 2015

NOTE: "FAIR" INDICATES FEW OR NO CLOUDS BELOW 12,000 FEET WITH NO
SIGNIFICANT WEATHER AND/OR OBSTRUCTIONS TO VISIBILITY.

* THESE STATIONS ARE NOT UNDER NWS QUALITY CONTROL. THEY ALSO MAY NOT
  REPORT WEATHER SUCH AS PRECIPITATION OR FOG.

ILZ001-002-007-009-015-016-024-262000-
NORTHWEST ILLINOIS

CITY           SKY/WX    TMP DP  RH WIND       PRES   REMARKS
MOLINE         SUNNY     45  23  42 N21G30    30.02F
STERLING*      CLOUDY    45  27  49 NW8G20    30.00F
SAVANNA*       SUNNY     45  22  40 NW14G21   30.01S
$$

ILZ003-004-008-010-011-017-018-262000-
NORTH CENTRAL ILLINOIS

CITY           SKY/WX    TMP DP  RH WIND       PRES   REMARKS
ROCKFORD       CLOUDY    38  22  52 NW13      30.01S WCI  30
FREEPORT*      CLOUDY    39  23  52 NW15G21   30.01F WCI  31
ROCHELLE*      CLOUDY    38  25  59 N15       29.99F WCI  29
DE KALB*       CLOUDY    37  24  60 NW13G20   29.98F WCI  29
PERU*          CLOUDY    42  26  53 NW14G21   30.00F
$$

ILZ005-006-012>014-019>023-262000-
NORTHEAST ILLINOIS

CITY           SKY/WX    TMP DP  RH WIND       PRES   REMARKS
CHICAGO-OHARE  PTSUNNY   41  24  51 NW13      29.95F
CHICAGO-MIDWAY PTSUNNY   45  24  43 W13G21    29.95F
AURORA         CLOUDY    41  26  55 NW18      29.97F
LANSING*       PTSUNNY   43  22  42 NW7       29.94F
JOLIET*        CLOUDY    45  26  47 W12G18    29.97F
WAUKEGAN       CLOUDY    39  23  52 W9        29.94F WCI  33
DUPAGE AIRPORT PTSUNNY   40  23  50 NW17G24   29.96F
KANKAKEE*      PTSUNNY   43  31  62 W16       29.96F
WHEELING       CLOUDY    41  22  46 NW14      29.96F
MORRIS*        CLOUDY    44  27  52 NW14G20   29.97F
ROMEOVILLE*    PTSUNNY   43  23  45 NW15G21   29.96F
NORTHERLY ISL    N/A     39  28  65 E5          N/A
$$

LMZ740>746-262000-
SOUTHERN LAKE MICHIGAN

STATION/POSITION SKY/WX   TEMP    WIND        PRES    VSBY  WAVE
                          AIR SEA DIR/SP/G                  HT/PER
                          (F)     (DEG/KT/KT) (MB)    (MI)  (FT/S)
HARRISON CRIB              36      60/  6/  8   N/A
BURNHAM HARBOR             39      50/  3/  5   N/A
CALUMET HARBOR             37      30/ 10/ 12 1013.5F
BURNS HARBOR               35      20/  5/  6 1015.6F
MICHIGAN CITY              37     280/  6/  6   N/A
$$

ILZ025>027-034>036-040-047-049-050-058-095>099-262000-
WEST-CENTRAL ILLINOIS

CITY           SKY/WX    TMP DP  RH WIND       PRES   REMARKS
QUINCY         SUNNY     46  25  43 NW17G25   30.06F
GALESBURG*     SUNNY     44  24  45 NW10G24   30.03F
MACOMB*        SUNNY     46  27  46 NW14G28   30.07F
JACKSONVILLE*  PTSUNNY   48  30  50 NW15G22   30.04F
PITTSFIELD*    MOSUNNY   47  28  48 NW14      30.06F
$$

ILZ028>032-037-038-041>044-048-051>054-059>061-262000-
CENTRAL ILLINOIS

CITY           SKY/WX    TMP DP  RH WIND       PRES   REMARKS
PONTIAC        PTSUNNY   45  31  58 NW15      29.98F
BLOOMINGTON    PTSUNNY   44  30  58 NW15      30.00S
DECATUR        CLOUDY    44  29  55 NW17      30.01S
PEORIA         MOSUNNY   48  25  40 NW10G24   30.01F
LACON*         MOSUNNY   44  27  50 NW13G22   30.00F
LINCOLN*       CLOUDY    47  29  50 NW8G18    30.02S
SPRINGFIELD    CLOUDY    46  28  49 W16       30.04S
TAYLORVILLE    CLOUDY    43  32  65 NW13      30.03F
$$

ILZ033-039-045-046-055>057-062-063-262000-
EAST-CENTRAL ILLINOIS

CITY           SKY/WX    TMP DP  RH WIND       PRES   REMARKS
CHAMPAIGN      CLOUDY    45  32  60 NW14      29.98S
DANVILLE*      PTSUNNY   42  33  69 NW9G20    29.95R
RANTOUL*       CLOUDY    46  32  58 NW16      29.97R
MATTOON        CLOUDY    43  33  68 NW16G24   29.99F
PARIS*         PTSUNNY   42  35  74 NW13      30.00R
$$

ILZ079-100>102-262000-
SOUTHWEST ILLINOIS

CITY           SKY/WX    TMP DP  RH WIND       PRES   REMARKS
ALTON          MOSUNNY   43  32  65 NW13G20   30.06F
BELLEVILLE     CLOUDY    44  33  64 NW9       30.04F
CAHOKIA*       CLOUDY    46  31  55 NW13      30.07F
SPARTA*        CLOUDY    42  33  70 NW12      30.06F
$$

ILZ064>066-069>071-074>076-080>082-084>086-088>090-092>094-262000-
SOUTH-CENTRAL ILLINOIS

CITY           SKY/WX    TMP DP  RH WIND       PRES   REMARKS
CARBONDALE     CLOUDY    41  33  73 NW12      30.05S
CAIRO*         DRIZZLE   41  37  83 N14       30.05R
EFFINGHAM*     CLOUDY    43  31  63 W14       30.03F
MARION         CLOUDY    41  36  81 N17       30.05F
MT. VERNON     CLOUDY    41  30  65 NW5       30.05R
CENTRALIA*     CLOUDY    42  33  70 NW13G20   30.04R
SALEM*         CLOUDY    44  35  69 NW16      30.04F
METROPOLIS*    LGT RAIN  42  42 100 NW12      30.03R
$$

ILZ067-068-072-073-078-083-087-091-262000-
SOUTHEAST ILLINOIS

CITY           SKY/WX    TMP DP  RH WIND       PRES   REMARKS
LAWRENCEVILLE  CLOUDY    44  35  70 NW16      29.99S
FLORA*         CLOUDY    42  33  72 NW16      30.02F
FAIRFIELD*     CLOUDY    41  33  72 NW8       30.01S
HARRISBURG*    CLOUDY    42  37  82 NW10      30.04S
ROBINSON*      CLOUDY    42  35  74 NW12      30.01F
CARMI*         CLOUDY   N/A N/A N/A NW15G22   30.02R
$$

ABBREVIATIONS USED IN REMARKS
   TC - TEMPERATURE IN CELSIUS
  WCI - WIND CHILL INDEX
   HX - HEAT INDEX
  VSB - VISIBILITY
$$




USA.gov is the U.S. government's official web portal to all federal, state and local government web resources and services.